Location: Arthurs Seat
(13.1500°N, 59.6000°W)
Time: 18:39:23
(UTC+00:00)

FALCON 9 DEB - Pass Details

Date: 25 August 2019
Orbit: 431 x 445 km, 53.0° (Epoch: 17 October)

Event Time Altitude Azimuth Distance (km) Brightness Sun altitude
Rises 22:53:54 0° 325° (NW) 2,398 7.7 -10.3°
Reaches altitude 10° 22:56:01 10° 326° (NW) 1,528 6.6 -10.8°
Maximum altitude 22:59:27 85° 56° (ENE) 435 3.0 -11.6°
Enters shadow 23:02:19 14° 143° (SE) 1,301 5.1 -12.3°
